�N����,����,�g�[���i���ԁj���x,�g�[�����x,��g�[���i���ցj���x,����
 2003/05/01, 0:00,23.2,50,21.9,23.2
 2003/05/01, 0:15,23.2,50,21.8,23.2
 2003/05/01, 0:30,23.2,51,21.8,23.3
 2003/05/01, 0:45,23.2,53,21.9,23.3
 2003/05/01, 1:00,23.2,52,22,23.2
 2003/05/01, 1:15,23.2,51,21.8,23.2
 2003/05/01, 1:30,23.2,51,21.8,23.2
 2003/05/01, 1:45,23.1,52,21.9,23.3
 2003/05/01, 2:00,23.1,52,21.9,23.3
 2003/05/01, 2:15,23.1,52,22,23.3
 2003/05/01, 2:30,23.1,52,22,23.3
 2003/05/01, 2:45,23.1,52,22,23.3
 2003/05/01, 3:00,23,52,21.9,23.3
 2003/05/01, 3:15,23,52,21.9,23.3
 2003/05/01, 3:30,23,52,21.9,23.2
 2003/05/01, 3:45,23,51,21.7,23.2
 2003/05/01, 4:00,23,51,21.7,23.2
 2003/05/01, 4:15,22.9,52,21.7,23.2
 2003/05/01, 4:30,23,52,21.8,23.2
 2003/05/01, 4:45,22.9,53,21.8,23.2
 2003/05/01, 5:00,22.9,53,21.9,23.2
 2003/05/01, 5:15,22.9,53,21.9,23.2
 2003/05/01, 5:30,22.9,53,21.8,23.2
 2003/05/01, 5:45,23.1,52,21.8,23.2
 2003/05/01, 6:00,23.4,51,21.8,23.2
 2003/05/01, 6:15,23.8,50,22,23.3
 2003/05/01, 6:30,24,49,22.2,23.3
 2003/05/01, 6:45,24.3,49,22.4,23.4
 2003/05/01, 7:00,24.2,48,22.5,23.4
 2003/05/01, 7:15,24.7,47,22.6,23.5
 2003/05/01, 7:30,22.3,35,22.5,23.4
 2003/05/01, 7:45,22.1,32,22.4,23.5
 2003/05/01, 8:00,21.3,27,22.4,23.4
 2003/05/01, 8:15,21.7,26,22.4,23.4
 2003/05/01, 8:30,21.7,31,22.5,23.3
 2003/05/01, 8:45,23.6,37,22.3,23.4
 2003/05/01, 9:00,23.7,38,22.1,23.4
 2003/05/01, 9:15,23.7,37,22,23.3
 2003/05/01, 9:30,23.8,36,22,23.3
 2003/05/01, 9:45,23.7,37,22.2,23.3
 2003/05/01,10:00,23.7,38,22.4,23.2
 2003/05/01,10:15,23.7,38,22.4,23.2
 2003/05/01,10:30,23.7,39,22.4,23.2
 2003/05/01,10:45,23.7,40,22.5,23.2
 2003/05/01,11:00,23.7,40,22.5,23.2
 2003/05/01,11:15,23.7,41,22.6,23.2
 2003/05/01,11:30,23.6,41,22.6,23.2
 2003/05/01,11:45,23.6,41,22.5,23.2
 2003/05/01,12:00,23.6,41,22.6,23.2
 2003/05/01,12:15,23.7,41,22.5,23.2
 2003/05/01,12:30,23.6,41,22.6,23.2
 2003/05/01,12:45,23.6,41,22.6,23.2
 2003/05/01,13:00,23.6,41,22.6,23.2
 2003/05/01,13:15,23.6,42,22.7,23.2
 2003/05/01,13:30,23.6,41,22.7,23.2
 2003/05/01,13:45,23.6,42,22.7,23.2
 2003/05/01,14:00,23.6,43,22.7,23.2
 2003/05/01,14:15,23.7,43,22.7,23.3
 2003/05/01,14:30,23.7,42,22.8,23.3
 2003/05/01,14:45,23.7,42,22.8,23.3
 2003/05/01,15:00,23.7,42,22.9,23.3
 2003/05/01,15:15,23.7,42,22.9,23.3
 2003/05/01,15:30,23.7,42,22.9,23.3
 2003/05/01,15:45,24,42,23.1,23.3
 2003/05/01,16:00,23.8,43,23.2,23.4
 2003/05/01,16:15,23.8,42,23.6,23.4
 2003/05/01,16:30,23.9,42,24.1,23.4
 2003/05/01,16:45,23.9,43,24.4,23.5
 2003/05/01,17:00,24,42,24.6,23.5
 2003/05/01,17:15,24,43,24.7,23.5
 2003/05/01,17:30,24,43,24.8,23.6
 2003/05/01,17:45,23.3,34,24.5,23.5
 2003/05/01,18:00,23.9,37,24.3,23.5
 2003/05/01,18:15,23.8,38,24.1,23.6
 2003/05/01,18:30,23.8,39,23.8,23.6
 2003/05/01,18:45,23.8,40,23.6,23.5
 2003/05/01,19:00,23.8,41,23.4,23.5
 2003/05/01,19:15,24,42,23.4,23.6
 2003/05/01,19:30,24.1,42,23.2,23.6
 2003/05/01,19:45,24,42,23.1,23.6
 2003/05/01,20:00,23.8,41,22.9,23.5
 2003/05/01,20:15,23.7,41,23,23.5
 2003/05/01,20:30,23.7,42,23,23.5
 2003/05/01,20:45,23.6,43,22.9,23.5
 2003/05/01,21:00,23.6,44,22.9,23.5
 2003/05/01,21:15,23.6,45,23,23.5
 2003/05/01,21:30,23.6,45,23,23.5
 2003/05/01,21:45,23.6,46,23,23.5
 2003/05/01,22:00,23.5,46,22.9,23.5
 2003/05/01,22:15,23.5,46,22.9,23.5
 2003/05/01,22:30,23.5,47,22.9,23.5
 2003/05/01,22:45,23.5,47,22.9,23.5
 2003/05/01,23:00,23.4,46,23,23.5
 2003/05/01,23:15,23.4,46,23,23.5
 2003/05/01,23:30,23.4,45,22.9,23.5
 2003/05/01,23:45,23.3,46,22.9,23.5
 2003/05/02, 0:00,23.3,46,22.9,23.5
 2003/05/02, 0:15,23.3,45,22.9,23.5
 2003/05/02, 0:30,23.2,46,22.8,23.5
 2003/05/02, 0:45,23.1,46,22.8,23.4
 2003/05/02, 1:00,23.1,45,22.9,23.4
 2003/05/02, 1:15,23.1,45,22.8,23.4
 2003/05/02, 1:30,23,45,22.7,23.4
 2003/05/02, 1:45,23,45,22.8,23.4
 2003/05/02, 2:00,23,45,22.7,23.4
 2003/05/02, 2:15,23,45,22.7,23.4
 2003/05/02, 2:30,22.9,45,22.7,23.3
 2003/05/02, 2:45,22.9,45,22.7,23.3
 2003/05/02, 3:00,22.9,45,22.7,23.3
 2003/05/02, 3:15,22.9,46,22.7,23.3
 2003/05/02, 3:30,22.9,46,22.7,23.3
 2003/05/02, 3:45,22.8,46,22.6,23.3
 2003/05/02, 4:00,22.8,46,22.6,23.3
 2003/05/02, 4:15,22.8,47,22.6,23.3
 2003/05/02, 4:30,22.8,46,22.6,23.2
 2003/05/02, 4:45,22.7,47,22.6,23.2
 2003/05/02, 5:00,22.7,47,22.5,23.2
 2003/05/02, 5:15,22.7,47,22.5,23.2
 2003/05/02, 5:30,22.7,47,22.5,23.2
 2003/05/02, 5:45,23,46,22.5,23.2
 2003/05/02, 6:00,23.4,45,22.6,23.2
 2003/05/02, 6:15,23.7,45,22.6,23.3
 2003/05/02, 6:30,23.9,45,22.7,23.3
 2003/05/02, 6:45,24.1,44,22.8,23.4
 2003/05/02, 7:00,24.3,43,22.9,23.5
 2003/05/02, 7:15,24.6,43,23,23.5
 2003/05/02, 7:30,24.7,43,23,23.6
 2003/05/02, 7:45,24.4,42,22.9,23.6
 2003/05/02, 8:00,24.7,42,22.8,23.6
 2003/05/02, 8:15,24.7,42,22.8,23.6
 2003/05/02, 8:30,24.7,42,22.9,23.7
 2003/05/02, 8:45,24.6,43,23,23.7
 2003/05/02, 9:00,24.5,43,23.1,23.6
 2003/05/02, 9:15,24.5,44,23,23.6
 2003/05/02, 9:30,24.4,43,23.1,23.6
 2003/05/02, 9:45,24.4,44,23,23.6
 2003/05/02,10:00,24.3,44,23.1,23.6
 2003/05/02,10:15,24.3,44,23.1,23.6
 2003/05/02,10:30,24.3,44,23,23.6
 2003/05/02,10:45,24.3,44,23,23.6
 2003/05/02,11:00,24.3,45,23,23.6
 2003/05/02,11:15,24.2,45,23,23.6
 2003/05/02,11:30,24.2,45,23,23.6
 2003/05/02,11:45,24.2,45,23.1,23.6
 2003/05/02,12:00,24.2,45,23.1,23.6
 2003/05/02,12:15,24.2,45,23.1,23.6
 2003/05/02,12:30,24.2,45,23.1,23.6
 2003/05/02,12:45,24.2,45,23.1,23.6
 2003/05/02,13:00,24.2,45,23.1,23.6
 2003/05/02,13:15,24.2,45,23.2,23.6
 2003/05/02,13:30,24.2,45,23.2,23.6
 2003/05/02,13:45,24.2,45,23.2,23.7
 2003/05/02,14:00,24.2,44,23.2,23.7
 2003/05/02,14:15,24.2,44,23.2,23.7
 2003/05/02,14:30,24.2,44,23.3,23.7
 2003/05/02,14:45,24.2,44,23.3,23.7
 2003/05/02,15:00,24.2,44,23.3,23.7
 2003/05/02,15:15,24.2,44,23.4,23.7
 2003/05/02,15:30,24.2,44,23.4,23.7
 2003/05/02,15:45,24.2,44,23.4,23.7
 2003/05/02,16:00,24.2,44,23.5,23.7
 2003/05/02,16:15,24.3,44,24,23.7
 2003/05/02,16:30,24.2,44,24.3,23.8
 2003/05/02,16:45,24.3,44,24.5,23.8
 2003/05/02,17:00,24.2,44,24.6,23.8
 2003/05/02,17:15,24.2,44,24.6,23.8
 2003/05/02,17:30,24.2,44,24.5,23.8
 2003/05/02,17:45,24.1,45,24.4,23.8
 2003/05/02,18:00,24.1,45,24.2,23.8
 2003/05/02,18:15,24.1,45,24,23.8
 2003/05/02,18:30,24.1,45,23.8,23.8
 2003/05/02,18:45,24,46,23.7,23.8
 2003/05/02,19:00,24,46,23.5,23.8
 2003/05/02,19:15,23.9,46,23.5,23.8
 2003/05/02,19:30,23.9,46,23.4,23.7
 2003/05/02,19:45,23.9,46,23.4,23.7
 2003/05/02,20:00,23.8,47,23.4,23.7
 2003/05/02,20:15,23.8,46,23.4,23.7
 2003/05/02,20:30,23.8,47,23.3,23.7
 2003/05/02,20:45,23.8,47,23.3,23.7
 2003/05/02,21:00,23.8,47,23.3,23.7
 2003/05/02,21:15,23.8,47,23.3,23.7
 2003/05/02,21:30,23.8,47,23.3,23.7
 2003/05/02,21:45,23.8,47,23.3,23.7
 2003/05/02,22:00,23.8,47,23.2,23.7
 2003/05/02,22:15,24,47,23.3,23.7
 2003/05/02,22:30,24.1,47,23.3,23.7
 2003/05/02,22:45,24.1,47,23.3,23.8
 2003/05/02,23:00,24,48,23.3,23.8
 2003/05/02,23:15,23.9,48,23.3,23.8
 2003/05/02,23:30,23.9,48,23.3,23.8
 2003/05/02,23:45,23.9,48,23.3,23.8
 2003/05/03, 0:00,23.9,48,23.3,23.8
 2003/05/03, 0:15,23.9,48,23.3,23.8
 2003/05/03, 0:30,23.9,48,23.3,23.8
 2003/05/03, 0:45,23.9,48,23.3,23.9
 2003/05/03, 1:00,23.9,49,23.3,23.9
 2003/05/03, 1:15,23.9,49,23.3,23.9
 2003/05/03, 1:30,23.8,49,23.3,23.9
 2003/05/03, 1:45,23.8,49,23.3,23.9
 2003/05/03, 2:00,23.8,49,23.3,23.9
 2003/05/03, 2:15,23.8,49,23.3,23.9
 2003/05/03, 2:30,23.8,49,23.3,23.9
 2003/05/03, 2:45,23.8,49,23.3,23.9
 2003/05/03, 3:00,23.8,49,23.3,23.9
 2003/05/03, 3:15,23.7,49,23.3,23.9
 2003/05/03, 3:30,23.7,49,23.3,23.9
 2003/05/03, 3:45,23.7,50,23.3,23.9
 2003/05/03, 4:00,23.7,50,23.3,23.9
 2003/05/03, 4:15,23.6,50,23.2,23.9
 2003/05/03, 4:30,23.6,50,23.2,23.9
 2003/05/03, 4:45,23.6,50,23.2,23.8
 2003/05/03, 5:00,23.5,50,23.2,23.9
 2003/05/03, 5:15,23.6,50,23.2,23.8
 2003/05/03, 5:30,23.6,50,23.2,23.8
 2003/05/03, 5:45,23.8,50,23.2,23.9
 2003/05/03, 6:00,24.1,49,23.2,23.9
 2003/05/03, 6:15,24.3,48,23.3,23.9
 2003/05/03, 6:30,24.6,47,23.4,24
 2003/05/03, 6:45,22.9,47,23.4,23.9
 2003/05/03, 7:00,22.6,47,23.1,23.6
 2003/05/03, 7:15,23.1,46,22.9,23.5
 2003/05/03, 7:30,22.8,47,22.9,23.5
 2003/05/03, 7:45,23.2,46,22.9,23.5
 2003/05/03, 8:00,23.7,45,23.1,23.6
 2003/05/03, 8:15,24.3,43,23.1,23.8
 2003/05/03, 8:30,24,43,23.3,23.9
 2003/05/03, 8:45,24.2,43,23.2,23.9
 2003/05/03, 9:00,24.5,42,23.3,23.9
 2003/05/03, 9:15,24.4,42,23.3,23.9
 2003/05/03, 9:30,24.5,44,23.3,23.7
 2003/05/03, 9:45,24.4,43,23,23.6
 2003/05/03,10:00,24.3,43,23,23.5
 2003/05/03,10:15,24.4,44,23,23.5
 2003/05/03,10:30,24.3,44,23,23.6
 2003/05/03,10:45,24.4,43,23.1,23.5
 2003/05/03,11:00,24.4,44,23.1,23.6
 2003/05/03,11:15,24.4,44,23.1,23.6
 2003/05/03,11:30,24.3,44,23.1,23.5
 2003/05/03,11:45,24.3,44,23.1,23.4
 2003/05/03,12:00,24.3,44,23.1,23.5
 2003/05/03,12:15,24.3,44,23.1,23.5
 2003/05/03,12:30,24.3,43,23.1,23.5
 2003/05/03,12:45,24.3,44,23.1,23.5
 2003/05/03,13:00,24.3,43,23.1,23.5
 2003/05/03,13:15,24.3,43,23.1,23.4
 2003/05/03,13:30,24.3,43,23.1,23.5
 2003/05/03,13:45,24.3,42,23.2,23.6
 2003/05/03,14:00,24.3,41,23.2,23.6
 2003/05/03,14:15,24.3,40,23.2,23.6
 2003/05/03,14:30,24.3,40,23.2,23.8
 2003/05/03,14:45,24.4,37,23.2,23.9
 2003/05/03,15:00,24.4,39,23.4,24
 2003/05/03,15:15,24.5,39,23.4,24.1
 2003/05/03,15:30,24.5,38,23.7,24.2
 2003/05/03,15:45,24.5,38,23.7,24.3
 2003/05/03,16:00,24.6,38,23.9,24.4
 2003/05/03,16:15,24.5,36,24.4,24.4
 2003/05/03,16:30,24.6,38,25,24.5
 2003/05/03,16:45,24.6,37,25.2,24.5
 2003/05/03,17:00,24.5,33,25.2,24.5
 2003/05/03,17:15,24.5,34,25.3,24.5
 2003/05/03,17:30,24.5,36,25.2,24.4
 2003/05/03,17:45,24.5,37,25.1,24.4
 2003/05/03,18:00,24.6,37,24.9,24.3
 2003/05/03,18:15,24.5,38,24.7,24.3
 2003/05/03,18:30,24.5,39,24.4,24.2
 2003/05/03,18:45,24.5,38,24.3,24.2
 2003/05/03,19:00,24.2,41,24.2,24.2
 2003/05/03,19:15,23.8,42,24.1,24.2
 2003/05/03,19:30,23.7,42,24,24.1
 2003/05/03,19:45,23.6,44,24,24.1
 2003/05/03,20:00,24,43,24,24.1
 2003/05/03,20:15,24.3,43,24,24.2
 2003/05/03,20:30,24.4,43,24,24.2
 2003/05/03,20:45,24.5,43,24,24.1
 2003/05/03,21:00,24.6,43,23.9,24.1
 2003/05/03,21:15,24.7,43,23.8,24
 2003/05/03,21:30,24.8,43,23.8,24
 2003/05/03,21:45,24.9,44,23.7,23.9
 2003/05/03,22:00,25,45,23.7,23.9
 2003/05/03,22:15,25,45,23.7,23.9
 2003/05/03,22:30,25.1,45,23.7,23.9
 2003/05/03,22:45,25,45,23.7,24
 2003/05/03,23:00,25.1,45,23.7,23.9
 2003/05/03,23:15,25.1,45,23.7,23.8
 2003/05/03,23:30,25.1,45,23.7,23.9
 2003/05/03,23:45,25.1,46,23.7,23.7
 2003/05/04, 0:00,25,46,23.6,23.7
 2003/05/04, 0:15,25,46,23.6,23.8
 2003/05/04, 0:30,24.9,47,23.6,23.9
 2003/05/04, 0:45,24.9,47,23.6,23.9
 2003/05/04, 1:00,24.9,47,23.6,23.8
 2003/05/04, 1:15,24.9,47,23.6,23.6
 2003/05/04, 1:30,24.9,47,23.5,23.7
 2003/05/04, 1:45,24.8,47,23.5,23.7
 2003/05/04, 2:00,24.8,48,23.5,23.7
 2003/05/04, 2:15,24.8,48,23.5,23.8
 2003/05/04, 2:30,24.8,48,23.5,23.8
 2003/05/04, 2:45,24.8,48,23.4,23.7
 2003/05/04, 3:00,24.8,48,23.4,23.7
 2003/05/04, 3:15,24.8,48,23.4,23.6
 2003/05/04, 3:30,24.7,48,23.4,23.5
 2003/05/04, 3:45,24.7,48,23.4,23.5
 2003/05/04, 4:00,24.7,48,23.4,23.4
 2003/05/04, 4:15,24.7,48,23.4,23.4
 2003/05/04, 4:30,24.6,49,23.4,23.4
 2003/05/04, 4:45,24.6,49,23.4,23.4
 2003/05/04, 5:00,24.6,49,23.3,23.4
 2003/05/04, 5:15,24.6,49,23.3,23.5
 2003/05/04, 5:30,24.6,49,23.4,23.5
 2003/05/04, 5:45,24.7,49,23.4,23.6
 2003/05/04, 6:00,24.7,49,23.4,23.5
 2003/05/04, 6:15,24.8,49,23.4,23.5
 2003/05/04, 6:30,24.8,48,23.4,23.4
 2003/05/04, 6:45,24.9,48,23.4,23.4
 2003/05/04, 7:00,25.1,48,23.4,23.4
 2003/05/04, 7:15,25.2,47,23.4,23.7
 2003/05/04, 7:30,25.2,47,23.4,23.7
 2003/05/04, 7:45,25.3,46,23.5,23.8
 2003/05/04, 8:00,25.4,46,23.5,23.8
 2003/05/04, 8:15,25.6,46,23.6,23.9
 2003/05/04, 8:30,25.7,50,23.6,23.9
 2003/05/04, 8:45,25.4,47,24,24.2
 2003/05/04, 9:00,25.4,48,24.1,24.3
 2003/05/04, 9:15,25.4,47,24.1,24.3
 2003/05/04, 9:30,25.5,47,24.2,24.3
 2003/05/04, 9:45,25.5,47,24.2,24.4
 2003/05/04,10:00,25.5,46,24.3,24.4
 2003/05/04,10:15,25.5,46,24.3,24.5
 2003/05/04,10:30,25.5,46,24.3,24.6
 2003/05/04,10:45,25.5,46,24.4,24.6
 2003/05/04,11:00,25.5,46,24.4,24.6
 2003/05/04,11:15,25.5,46,24.4,24.7
 2003/05/04,11:30,25.5,46,24.5,24.7
 2003/05/04,11:45,25.6,46,24.4,24.8
 2003/05/04,12:00,25.6,47,24.5,24.8
 2003/05/04,12:15,25.7,46,24.5,24.8
 2003/05/04,12:30,25.8,47,24.6,24.8
 2003/05/04,12:45,25.8,47,24.5,24.8
 2003/05/04,13:00,25.8,47,24.6,24.9
 2003/05/04,13:15,25.8,48,24.7,24.9
 2003/05/04,13:30,25.8,48,24.9,25
 2003/05/04,13:45,25.8,48,24.9,25
 2003/05/04,14:00,25.8,48,24.8,25
 2003/05/04,14:15,25.8,48,24.8,25.1
 2003/05/04,14:30,25.8,48,24.9,25.1
 2003/05/04,14:45,25.8,48,24.9,25.1
 2003/05/04,15:00,25.8,48,24.8,25.2
 2003/05/04,15:15,25.7,48,24.9,25.2
 2003/05/04,15:30,25.8,48,24.9,25.2
 2003/05/04,15:45,25.8,48,25,25.2
 2003/05/04,16:00,25.8,48,25.2,25.3
 2003/05/04,16:15,25.8,48,25.6,25.3
 2003/05/04,16:30,25.9,48,26,25.3
 2003/05/04,16:45,26,48,25.9,25.3
 2003/05/04,17:00,26,48,25.9,25.3
 2003/05/04,17:15,26.1,47,25.8,25.4
 2003/05/04,17:30,26.1,47,25.9,25.4
 2003/05/04,17:45,26.1,47,25.8,25.4
 2003/05/04,18:00,26.1,47,25.7,25.4
 2003/05/04,18:15,25.8,48,25.4,25.4
 2003/05/04,18:30,25.7,47,25.2,25.4
 2003/05/04,18:45,25.7,47,25.1,25.4
 2003/05/04,19:00,25.6,47,25.1,25.4
 2003/05/04,19:15,25.6,47,25,25.3
 2003/05/04,19:30,25.5,47,25,25.3
 2003/05/04,19:45,25.5,47,24.9,25.3
 2003/05/04,20:00,25.5,47,24.9,25.3
 2003/05/04,20:15,25.4,48,24.9,25.3
 2003/05/04,20:30,25.4,48,24.8,25.2
 2003/05/04,20:45,25.4,48,24.8,25.2
 2003/05/04,21:00,25.3,48,24.8,25.2
 2003/05/04,21:15,25.6,48,24.7,25.2
 2003/05/04,21:30,25.7,49,24.9,25.3
 2003/05/04,21:45,25.9,45,24.8,25.2
 2003/05/04,22:00,25.9,44,24.6,25.2
 2003/05/04,22:15,25.8,44,24.6,25.2
 2003/05/04,22:30,25.8,43,24.6,25.1
 2003/05/04,22:45,25.8,45,24.6,25.1
 2003/05/04,23:00,25.8,45,24.6,25.1
 2003/05/04,23:15,25.9,45,24.6,25.1
 2003/05/04,23:30,25.9,47,24.6,25.1
 2003/05/04,23:45,26,46,24.6,25.1
 2003/05/05, 0:00,25.9,47,24.6,25.1
 2003/05/05, 0:15,25.9,47,24.6,25
 2003/05/05, 0:30,26,48,24.5,25
 2003/05/05, 0:45,26.1,50,24.6,25
 2003/05/05, 1:00,26.2,50,24.5,25
 2003/05/05, 1:15,26.1,49,24.6,25
 2003/05/05, 1:30,26.1,49,24.5,25
 2003/05/05, 1:45,26.1,49,24.5,25
 2003/05/05, 2:00,26,49,24.4,25
 2003/05/05, 2:15,26,49,24.5,25
 2003/05/05, 2:30,26,49,24.4,25
 2003/05/05, 2:45,26,49,24.4,25
 2003/05/05, 3:00,26,49,24.4,25
 2003/05/05, 3:15,25.9,50,24.4,25
 2003/05/05, 3:30,25.8,50,24.4,24.9
 2003/05/05, 3:45,25.8,50,24.4,24.9
 2003/05/05, 4:00,25.8,50,24.4,24.9
 2003/05/05, 4:15,25.7,50,24.3,24.9
 2003/05/05, 4:30,25.6,50,24.4,24.9
 2003/05/05, 4:45,25.6,49,24.4,24.9
 2003/05/05, 5:00,25.5,49,24.4,24.9
 2003/05/05, 5:15,25.5,49,24.4,24.9
 2003/05/05, 5:30,25.6,49,24.4,24.9
 2003/05/05, 5:45,25.8,49,24.3,24.9
 2003/05/05, 6:00,26.1,48,24.4,24.9
 2003/05/05, 6:15,26.3,47,24.4,24.9
 2003/05/05, 6:30,26.5,46,24.5,24.9
 2003/05/05, 6:45,26.7,46,24.5,24.9
 2003/05/05, 7:00,26.9,45,24.5,24.9
 2003/05/05, 7:15,27.1,45,24.5,24.9
 2003/05/05, 7:30,27,45,24.6,25
 2003/05/05, 7:45,27.1,45,24.8,25.1
 2003/05/05, 8:00,27.2,45,24.8,25.2
 2003/05/05, 8:15,27.2,45,24.9,25.2
 2003/05/05, 8:30,27.3,44,24.8,25.1
 2003/05/05, 8:45,27.3,44,24.8,25.1
 2003/05/05, 9:00,27,45,24.8,25.3
 2003/05/05, 9:15,26.4,26,24.8,25.3
 2003/05/05, 9:30,26.1,24,25,25.4
 2003/05/05, 9:45,26.1,22,24.9,25.4
 2003/05/05,10:00,26.1,25,24.9,25.3
 2003/05/05,10:15,26.1,22,24.8,25.3
 2003/05/05,10:30,26.1,24,24.9,25.3
 2003/05/05,10:45,26.1,25,24.9,25.3
 2003/05/05,11:00,26.1,27,24.8,25.3
 2003/05/05,11:15,26.1,30,24.8,25.3
 2003/05/05,11:30,26.1,32,24.8,25.3
 2003/05/05,11:45,26.3,21,24.8,25.3
 2003/05/05,12:00,26.2,24,24.7,25.3
 2003/05/05,12:15,26.3,23,24.7,25.3
 2003/05/05,12:30,26.2,25,24.8,25.4
 2003/05/05,12:45,26,33,24.8,25.3
 2003/05/05,13:00,26.1,32,24.8,25.4
 2003/05/05,13:15,26.1,30,24.8,25.6
 2003/05/05,13:30,26.1,30,24.7,25.7
 2003/05/05,13:45,26,30,24.9,25.9
 2003/05/05,14:00,26,29,25,25.8
 2003/05/05,14:15,26.2,32,25.1,25.9
 2003/05/05,14:30,26.2,29,25.2,26
 2003/05/05,14:45,26.3,31,25.3,26.2
 2003/05/05,15:00,26.3,31,25.3,26.3
 2003/05/05,15:15,26.3,29,25.4,26.4
 2003/05/05,15:30,26.3,29,25.5,26.5
 2003/05/05,15:45,26.3,28,25.6,26.5
 2003/05/05,16:00,26.2,29,25.8,26.4
 2003/05/05,16:15,26.1,29,26.2,26.3
 2003/05/05,16:30,26.1,26,26.4,26.4
 2003/05/05,16:45,26.1,25,26.5,26.3
 2003/05/05,17:00,26.1,26,26.6,26.1
 2003/05/05,17:15,26.1,27,26.5,26
 2003/05/05,17:30,26.1,26,26.4,25.8
 2003/05/05,17:45,26,29,26.3,25.6
 2003/05/05,18:00,26.1,31,26.2,25.7
 2003/05/05,18:15,26,33,26,25.6
 2003/05/05,18:30,25.9,35,25.8,25.6
 2003/05/05,18:45,25.9,35,25.7,25.5
 2003/05/05,19:00,25.8,36,25.7,25.5
 2003/05/05,19:15,25.8,36,25.5,25.4
 2003/05/05,19:30,25.8,37,25.5,25.4
 2003/05/05,19:45,25.9,38,25.6,25.3
 2003/05/05,20:00,26.1,44,25.6,25.4
 2003/05/05,20:15,26,44,25.6,25.3
 2003/05/05,20:30,26.2,43,25.6,25.3
 2003/05/05,20:45,26.3,43,25.7,25.2
 2003/05/05,21:00,26.3,43,25.7,25.2
 2003/05/05,21:15,26.3,45,25.7,25.3
 2003/05/05,21:30,26.3,44,25.8,25.2
 2003/05/05,21:45,26.4,44,25.7,25.2
 2003/05/05,22:00,26.3,44,25.7,25.3
 2003/05/05,22:15,26.3,45,25.7,25.2
 2003/05/05,22:30,26.3,45,25.7,25.2
 2003/05/05,22:45,26.3,45,25.7,25.2
 2003/05/05,23:00,26.2,46,25.7,25.2
 2003/05/05,23:15,26.4,45,25.6,25.3
 2003/05/05,23:30,26.4,45,25.5,25
 2003/05/05,23:45,26.4,45,25.5,25
 2003/05/06, 0:00,26.3,45,25.5,25.3
 2003/05/06, 0:15,26.3,45,25.5,25.5
 2003/05/06, 0:30,26.3,45,25.5,25.6
 2003/05/06, 0:45,26.2,46,25.5,25.7
 2003/05/06, 1:00,26.2,46,25.5,25.7
 2003/05/06, 1:15,26.1,46,25.5,25.8
 2003/05/06, 1:30,26.1,46,25.5,25.8
 2003/05/06, 1:45,26.1,46,25.5,25.8
 2003/05/06, 2:00,26,46,25.5,25.8
 2003/05/06, 2:15,26,46,25.5,25.9
 2003/05/06, 2:30,26,46,25.4,25.8
 2003/05/06, 2:45,26,46,25.4,25.9
 2003/05/06, 3:00,25.9,46,25.4,25.8
 2003/05/06, 3:15,25.9,47,25.4,25.8
 2003/05/06, 3:30,25.9,47,25.3,25.7
 2003/05/06, 3:45,25.9,47,25.3,25.8
 2003/05/06, 4:00,25.8,47,25.3,25.8
 2003/05/06, 4:15,25.9,47,25.3,25.8
 2003/05/06, 4:30,25.9,47,25.3,25.8
 2003/05/06, 4:45,25.8,47,25.3,25.8
 2003/05/06, 5:00,25.8,47,25.3,25.8
 2003/05/06, 5:15,25.7,48,25.3,25.8
 2003/05/06, 5:30,25.8,48,25.3,25.8
 2003/05/06, 5:45,25.9,47,25.3,25.8
 2003/05/06, 6:00,26.2,47,25.3,25.9
 2003/05/06, 6:15,26.3,46,25.4,25.9
 2003/05/06, 6:30,26.5,45,25.5,26
 2003/05/06, 6:45,26.7,45,25.5,26
 2003/05/06, 7:00,27,45,25.7,26.1
 2003/05/06, 7:15,27,45,25.7,26.1
 2003/05/06, 7:30,27.1,45,25.8,26.2
 2003/05/06, 7:45,27.6,46,25.8,25.2
 2003/05/06, 8:00,27.1,46,25.8,25.1
 2003/05/06, 8:15,27.1,45,25.8,25.1
 2003/05/06, 8:30,27,45,25.7,25.2
 2003/05/06, 8:45,27,45,25.8,25.8
 2003/05/06, 9:00,27,45,25.8,25.9
 2003/05/06, 9:15,26.9,45,25.8,26
 2003/05/06, 9:30,26.9,45,25.8,26
 2003/05/06, 9:45,26.9,45,25.8,26.1
 2003/05/06,10:00,26.8,46,25.8,26.1
 2003/05/06,10:15,26.8,46,25.8,26.1
 2003/05/06,10:30,26.8,45,25.8,26.1
 2003/05/06,10:45,26.8,45,25.9,26.2
 2003/05/06,11:00,26.8,45,25.9,26.2
 2003/05/06,11:15,26.8,46,25.9,26.2
 2003/05/06,11:30,26.8,45,25.9,26.1
 2003/05/06,11:45,26.8,45,25.9,26.1
 2003/05/06,12:00,26.7,45,25.9,26
 2003/05/06,12:15,26.8,44,25.9,26
 2003/05/06,12:30,26.7,44,25.8,26
 2003/05/06,12:45,26.7,44,25.8,25.9
 2003/05/06,13:00,26.6,44,25.8,25.9
 2003/05/06,13:15,26.6,44,25.8,25.9
 2003/05/06,13:30,26.6,44,25.8,25.9
 2003/05/06,13:45,26.6,44,25.8,25.9
 2003/05/06,14:00,26.6,44,25.8,25.9
 2003/05/06,14:15,26.6,44,25.8,25.9
 2003/05/06,14:30,26.6,44,25.8,25.8
 2003/05/06,14:45,26.6,44,25.8,25.9
 2003/05/06,15:00,26.6,44,25.8,25.9
 2003/05/06,15:15,26.6,44,25.8,25.8
 2003/05/06,15:30,26.6,44,25.7,25.8
 2003/05/06,15:45,26.5,45,25.7,25.7
 2003/05/06,16:00,26.5,44,25.7,25.6
 2003/05/06,16:15,26.5,44,25.7,25.6
 2003/05/06,16:30,26.5,44,25.7,25.5
 2003/05/06,16:45,26.5,45,25.8,25.5
 2003/05/06,17:00,26.4,45,25.7,25.4
 2003/05/06,17:15,26.4,45,25.7,25.4
 2003/05/06,17:30,26.4,45,25.6,25.3
 2003/05/06,17:45,26.4,45,25.6,25.3
 2003/05/06,18:00,26.3,45,25.6,25.2
 2003/05/06,18:15,26.3,45,25.6,25.3
 2003/05/06,18:30,26.3,45,25.6,25.2
 2003/05/06,18:45,26.3,45,25.6,25.3
 2003/05/06,19:00,26.2,46,25.6,25.2
 2003/05/06,19:15,26.3,46,25.6,25.4
 2003/05/06,19:30,26.2,46,25.5,25.4
 2003/05/06,19:45,26.3,46,25.5,25.2
 2003/05/06,20:00,26.2,46,25.5,25.4
 2003/05/06,20:15,26.2,46,25.5,25.1
 2003/05/06,20:30,26.2,46,25.5,25.2
 2003/05/06,20:45,26.2,46,25.5,25.1
 2003/05/06,21:00,26.2,46,25.5,25.1
 2003/05/06,21:15,26.5,46,25.5,25.1
 2003/05/06,21:30,26.8,47,25.7,25.1
 2003/05/06,21:45,26.7,48,25.5,25.1
 2003/05/06,22:00,26.9,49,25.5,25
 2003/05/06,22:15,26.9,49,25.5,25
 2003/05/06,22:30,27.1,49,25.5,25.4
 2003/05/06,22:45,27.1,49,25.6,25.5
 2003/05/06,23:00,26.9,51,25.6,25.6
 2003/05/06,23:15,26.9,51,25.6,25.7
 2003/05/06,23:30,26.6,51,25.6,25.8
 2003/05/06,23:45,26.6,51,25.7,25.9
 2003/05/07, 0:00,26.6,51,25.7,26
 2003/05/07, 0:15,26.5,51,25.7,26
 2003/05/07, 0:30,26.7,51,25.7,26.1
 2003/05/07, 0:45,26.8,50,25.7,26.1
 2003/05/07, 1:00,26.8,50,25.6,26.1
 2003/05/07, 1:15,26.6,51,25.6,26.1
 2003/05/07, 1:30,26.5,51,25.6,26.1
 2003/05/07, 1:45,26.5,52,25.6,26.1
 2003/05/07, 2:00,26.4,52,25.6,26.1
 2003/05/07, 2:15,26.3,52,25.6,26.1
 2003/05/07, 2:30,26.4,52,25.6,26.1
 2003/05/07, 2:45,26.3,52,25.6,26.1
 2003/05/07, 3:00,26.3,52,25.5,26.1
 2003/05/07, 3:15,26.3,52,25.5,26.1
 2003/05/07, 3:30,26.3,52,25.5,26.1
 2003/05/07, 3:45,26.2,52,25.5,26.1
 2003/05/07, 4:00,26.2,52,25.5,26.1
 2003/05/07, 4:15,26.2,52,25.5,26.1
 2003/05/07, 4:30,26.2,52,25.5,26.2
 2003/05/07, 4:45,26.2,52,25.5,26.2
 2003/05/07, 5:00,26.2,52,25.5,26.2
 2003/05/07, 5:15,26.2,52,25.5,26.1
 2003/05/07, 5:30,26.2,52,25.5,26.2
 2003/05/07, 5:45,26.2,52,25.5,26.2
 2003/05/07, 6:00,26.2,52,25.5,26.2
 2003/05/07, 6:15,26.2,52,25.5,26.2
 2003/05/07, 6:30,26.2,52,25.5,26.2
 2003/05/07, 6:45,26.2,52,25.6,26.2
 2003/05/07, 7:00,23.5,58,25.7,26.1
 2003/05/07, 7:15,23.2,60,25.5,26
 2003/05/07, 7:30,25.4,54,25.5,26.1
 2003/05/07, 7:45,25.9,53,25.6,25.7
 2003/05/07, 8:00,26.3,53,25.7,25.2
 2003/05/07, 8:15,26.2,52,25.7,25.2
 2003/05/07, 8:30,26.2,53,25.6,25.1
 2003/05/07, 8:45,26.3,52,25.6,25.5
 2003/05/07, 9:00,26.3,51,25.7,25.8
 2003/05/07, 9:15,26.3,51,25.7,25.9
 2003/05/07, 9:30,26.5,51,25.7,25.9
 2003/05/07, 9:45,26.5,51,25.8,26
 2003/05/07,10:00,26.6,51,25.8,26.1
 2003/05/07,10:15,26.6,50,25.9,26.1
 2003/05/07,10:30,26.6,50,25.9,26.1
 2003/05/07,10:45,26.7,51,25.9,26
 2003/05/07,11:00,26.7,51,25.9,25.9
 2003/05/07,11:15,26.7,50,26,26
 2003/05/07,11:30,26.7,51,26,25.8
 2003/05/07,11:45,26.7,51,26,25.8
 2003/05/07,12:00,26.7,50,26,25.8
 2003/05/07,12:15,26.8,50,26,25.8
 2003/05/07,12:30,26.8,51,26,25.8
 2003/05/07,12:45,26.7,51,26,25.8
 2003/05/07,13:00,26.7,51,26,25.9
 2003/05/07,13:15,26.8,51,26,25.9
 2003/05/07,13:30,26.7,51,26,25.9
 2003/05/07,13:45,26.7,50,26,25.9
 2003/05/07,14:00,26.7,51,25.9,26.1
 2003/05/07,14:15,26.7,51,26,26.1
 2003/05/07,14:30,26.7,51,26,26.1
 2003/05/07,14:45,26.6,51,26,26.2
 2003/05/07,15:00,26.7,51,25.9,26.2
 2003/05/07,15:15,26.7,51,25.9,26.2
 2003/05/07,15:30,26.6,52,25.9,26.2
 2003/05/07,15:45,26.6,52,25.9,26.2
 2003/05/07,16:00,26.6,52,25.9,26.2
 2003/05/07,16:15,26.6,52,26,26.3
 2003/05/07,16:30,26.6,52,26,26.3
 2003/05/07,16:45,26.6,52,26,26.3
 2003/05/07,17:00,26.6,52,26,26.3
 2003/05/07,17:15,26.6,52,26,26.3
 2003/05/07,17:30,26.6,52,26,26.1
 2003/05/07,17:45,26.6,52,26,26.2
 2003/05/07,18:00,26.6,52,26,26.1
 2003/05/07,18:15,26.6,52,26,26
 2003/05/07,18:30,26.6,52,25.9,25.9
 2003/05/07,18:45,26.6,52,25.9,25.9
 2003/05/07,19:00,26.6,52,25.9,25.9
 2003/05/07,19:15,26.5,52,25.9,26
 2003/05/07,19:30,26.5,52,25.9,25.9